Skip Page Navigation
NASA JPL Caltech
NASA Logo - Jet Propulsion Laboratory + View the NASA Portal
+ Center for Near-Earth Object Studies
JPL Home Earth Solar System Stars & Galaxies Technology
JPL Solar System Dynamics
BODIES ORBITS EPHEMERIDES TOOLS PHYSICAL DATA DISCOVERY FAQ SITE MAP
JPL Small-Body Database Browser
Search: [ help ]  
160106 (2000 SS62)
Classification: Main-belt Asteroid          SPK-ID: 2160106
Ephemeris | Orbit Diagram | Orbital Elements | Mission Design | Physical Parameters | Discovery Circumstances | Close-Approach Data ]

[ show orbit diagram ]
Orbital Elements at Epoch 2459200.5 (2020-Dec-17.0) TDB
Reference: JPL 12 (heliocentric ecliptic J2000)
 Element Value Uncertainty (1-sigma)   Units 
e .1915012061917555 3.5589e-08  
a 2.358958187976817 1.2217e-08 au
q 1.907214849623338 8.2955e-08 au
i 5.827266294354978 7.5827e-06 deg
node 356.0216872690129 4.04e-05 deg
peri 265.572393538636 4.5994e-05 deg
M 291.2264730980208 2.2787e-05 deg
tp 2459453.311943693287
(2021-Aug-26.81194369)
8.4196e-05 TDB
period 1323.362401630218
3.62
1.028e-05
2.815e-08
d
yr
n .2720343267698439 2.1133e-09 deg/d
Q 2.810701526330295 1.4557e-08 au
  Orbit Determination Parameters
   # obs. used (total)      489  
   data-arc span      10020 days (27.43 yr)  
   first obs. used      1993-10-08  
   last obs. used      2021-03-15  
   planetary ephem.      DE441  
   SB-pert. ephem.      SB441-N16  
   condition code      0  
   norm. resid. RMS      .56705  
   source      ORB  
   producer      Otto Matic  
   solution date      2021-Apr-13 19:59:56  

Additional Information
 Earth MOID = .901164 au 
 Jupiter MOID = 2.29437 au 
 T_jup = 3.521 
[ show covariance matrix ]

Ephemeris | Orbit Diagram | Orbital Elements | Mission Design | Physical Parameters | Discovery Circumstances | Close-Approach Data ]

Physical Parameter Table
Parameter Symbol Value Units Sigma Reference Notes
absolute magnitude H 16.3   n/a MPO254159  
diameter diameter 1.717 km 0.363 urn:nasa:pds:neowise_diameters_albedos::2.0[mainbelt] (http://adsabs.harvard.edu/abs/2011ApJ...741...68M)  
geometric albedo albedo 0.218   0.080 urn:nasa:pds:neowise_diameters_albedos::2.0[mainbelt] (http://adsabs.harvard.edu/abs/2011ApJ...741...68M)  

160106 (2000 SS62)          Discovered 2000-Sep-24 by LINEAR at Socorro
Reference: 20070730/Numbers.arcLast Updated: 2007-08-06

[ show close-approach data ]
Alternate Designations
 2000 SS62 = 1999 FH44 
Ephemeris | Orbit Diagram | Orbital Elements | Mission Design | Physical Parameters | Discovery Circumstances | Close-Approach Data ]
ABOUT SSD CREDITS/AWARDS PRIVACY/COPYRIGHT GLOSSARY LINKS
FirstGov 2021-Apr-22 00:06 UT
(server date/time)  
NASA Home Page
Site Manager:   Ryan S. Park
Webmaster  Alan B. Chamberlin